Find Kosmos-1946

NORAD ID: 19163 Int'l Des: 1988-043 Owner: UNKS Country: SU Constellation: GLONASS operational
MEOCIRCULAR

現在のビュー

3D地球を読み込み中...

About Kosmos-1946

Kosmos-1946 (NORAD 19163) is a GLONASS constellation satellite launched May 21, 1988 by UNKS of SU. It operates in MEO, CIRCULAR orbit with a mass of 1300.00 kg.

Kosmos-1946について

説明を読み込み中...

次回通過

Passes for default location (London). Set your location on the main map for personalized predictions.

高度履歴

Loading altitude history...

軌道要素

1 19163U 88043A 26194.78369601 -.00000011 00000-0 00000+0 0 9997
2 19163 64.9827 72.7038 0005179 81.7040 98.2777 2.13102792296168
Epoch: Jul 13, 2026 • Age: 20 hours

現在のステータス

高度 19127.3 km
遠地点 / 近地点 N/A
速度 3.96 km/s
衛星直下点 58.65°N, 43.36°E
打ち上げ日 May 21, 1988
運用期間 38.1 years
タイプ other

技術仕様

分類 Payload
質量 1300.00 kg
乾燥質量 1200.00 kg
総質量 1300.00 kg
長さ 4.00 m
直径 1.50 m
スパン 7.80 m
形状 Cyl + Ant + 2 Pan
製造者 OAZ
バスタイプ Uragan
フェーズステータス In Orbit
所有者/国 UNKS/SU

Most Searched